Showing default

XRISM, 57800

Orbit data source: Space-Track

XRISM, 57800 is a Japanese payload satellite in LEO that was launched on Wed, 06 Sep 2023 UTC via an H-IIA 202 launch vehicle from the Tanegashima Space Center (TNSTA). Payload-class satellites include a variety of spacecraft equipped with specific instruments for various scientific and technological missions. These include communications satellites like Starlink; space stations such as the ISS; scientific satellites like the Hubble; Earth observation satellites from companies like Planet Labs, Umbra, and HawkEye 360; GPS; miniature CubeSats for education and research; and military/defense satellites.

Loading next visibility...
Identifier
57800, 2023-137A
Orbit
LEO
Country
Flag of JPJP / JPN
Related business
Manufacturer
TSUK/NECTF
Mission
Operational Civil Astronomy
Bus & Motor
ASTRO-H, Unknown motor
Mass
2,700 kg wet, 2,700 kg dry
Launch date (UTC)
2023-09-06 (3 years ago)
Launch vehicle
H-IIA 202
Launch site
Tanegashima Space Center (TNSTA)
Object type
Payload
Rocket body
Debris
Shape & HBR
Oct Box + 2 Pan + 1 Rod, 5.5 m
Radar Cross Section
19.294 m², Large (>1 m²)

Expand to show TLE details & history
Last TLE update: 2 days ago

TLE from 2 days ago
0 XRISM
1 57800U 23137A   26171.16040668  .00004151  00000-0  22709-3 0  9998
2 57800  31.0032 340.3423 0007922 353.3613   6.6920 15.12489019153310
Epoch: 2026-06-20T03:50Z
TLE epoch observation values (Epoch: 2026-06-20T03:50:59.137Z)
Latitude
-0°
Longitude
14.21687°
Altitude
521.688 km
Speed
7.608 km/s
True Right ascension
22h 41m 22s
True Declination
0° 00' 00"
Sunlit
Object was in daylight at epoch
Visualization orbit readout
Latitude
Unknown
Longitude
Unknown
Altitude
Unknown
Speed
Unknown
Apparent Right ascension
Unknown
Apparent Declination
Unknown
Sunlit
N/A
Visualization observer readout
Local Sidereal Time
00:51:23
Azimuth
Unknown
Elevation
Unknown
Doppler factor
Unknown
Orbital elements
Apogee altitude
537.932 km
Perigee altitude
526.982 km
Semi-major axis
6,910.594 km
Eccentricity
0.00079
Inclination
31.0032°
RAAN
340.3423°
Arg. of periapsis
353.3613°
True anomaly
6.70259°
Mean anomaly
6.692°
Eccentric anomaly
6.69729°
Mean motion
3.77807 °/min
Orbital period
95.29 mins
BSTAR
0.00022709
Loading maneuver chart data...
Computing Atmospheric mass density...
Loading historical data...
Loading historical data...
Loading historical data...
Loading historical data...
Loading historical data...
Loading historical data...
Loading historical data...

Documentation

Showing up to 5 results
|